[[{"header":{"parameterUnit":"m.s-1","parameterCategory":1,"la1":30.2991,"la2":30.254,"lo1":-89.0895,"lo2":-89.0444,"dy":0.0017,"dx":0.0017,"nx":28,"ny":28,"refTime":"2025-12-13T03:00:00:Z","depth":0,"parameterNumber":2,"parameterNumberName":"U-component_of_WINDS"},"data":[0,0,0,0,0,0,0,0,0,0,0,0,0,0,0,0,0,0,0,0,0,0,0,0,0,0,0,0,0,0,0,0,0,0,0,0,0,0,0,0,0,0,0,0,0,0,0,0,0,0,0,0,0,0,0,0,0,0,-1.4846,-1.4846,0,-1.4877,-1.4877,-1.4877,-1.4851,-1.485,-1.4849,-1.4848,-1.488,-1.4882,-1.4884,0,0,0,0,0,0,0,0,0,0,0,0,0,-1.4763,-1.4765,-1.4846,-1.4846,-1.4846,-1.4877,-1.4877,-1.4878,-1.4851,-1.485,-1.4849,-1.4847,-1.488,-1.4882,-1.4884,0,0,0,0,0,0,0,0,0,0,0,0,0,-1.4797,-1.4765,-1.4846,-1.4837,-1.4836,-1.4877,-1.4877,-1.4878,-1.4852,-1.485,-1.4848,-1.4847,-1.4879,-1.4882,-1.4885,-1.4935,0,0,-1.4893,-1.4895,0,0,0,0,0,0,0,0,-1.4795,-1.48,-1.4838,-1.4838,-1.4837,-1.4858,-1.486,-1.4897,-1.4852,-1.4846,-1.4848,-1.4846,-1.4874,-1.4878,-1.4887,-1.4937,-1.4938,-1.4894,-1.4895,-1.4896,-1.4897,0,0,0,0,0,0,0,-1.4793,-1.4799,-1.4858,-1.4838,-1.4838,-1.4831,-1.4834,-1.4867,-1.4869,-1.4846,-1.4844,-1.4848,-1.4874,-1.4884,-1.4888,-1.4938,-1.4893,-1.4896,-1.4898,-1.4899,-1.503,-1.5032,0,0,0,0,0,0,-1.4791,-1.4797,-1.4857,-1.4859,-1.4812,-1.4834,-1.4838,-1.4853,-1.4869,-1.4869,-1.485,-1.4847,-1.488,-1.4884,-1.4889,-1.4949,-1.4896,-1.4899,-1.4901,-1.5028,-1.5031,-1.5032,0,0,0,0,0,0,-1.479,-1.4797,-1.4856,-1.4827,-1.4834,-1.4837,-1.4855,-1.4855,-1.4865,-1.4871,-1.4872,-1.486,-1.4879,-1.4885,-1.4924,-1.4949,-1.49,-1.4903,-1.5026,-1.5029,-1.5031,-1.5069,0,0,0,0,0,0,-1.4787,-1.4797,-1.4816,-1.4828,-1.4836,-1.489,-1.4857,-1.4857,-1.487,-1.4867,-1.4881,-1.4882,-1.4878,-1.4919,-1.4926,-1.4952,-1.4905,-1.5024,-1.5027,-1.5031,-1.5066,-1.5073,-1.5079,0,0,0,0,0,-1.4785,-1.4826,-1.4817,-1.4824,-1.486,-1.4892,-1.4896,-1.4891,-1.4872,-1.4892,-1.4895,-1.4881,-1.4945,-1.4924,-1.4931,-1.4959,-1.5022,-1.5026,-1.503,-1.5063,-1.5071,-1.5079,0,0,0,0,0,0,-1.4817,-1.4827,-1.4818,-1.4864,-1.4877,-1.4887,-1.4912,-1.4901,-1.492,-1.4916,-1.4909,-1.4913,-1.4954,-1.496,-1.4936,-1.5008,-1.4981,-1.4986,-1.5003,-1.5011,-1.5017,-1.5016,-1.4908,0,0,0,0,0,-1.4829,-1.4854,-1.4862,-1.4901,-1.4909,-1.4909,-1.4923,-1.4917,-1.4931,-1.4937,-1.4943,-1.4957,-1.498,-1.4996,-1.5017,-1.5066,-1.5068,-1.5088,-1.5095,-1.51,-1.5106,-1.5131,-1.514,-1.5046,-1.5046,-1.5046,0,0,-1.4856,-1.4864,-1.488,-1.4908,-1.4918,-1.4944,-1.4914,-1.4943,-1.4962,-1.4941,-1.4978,-1.4983,-1.4998,-1.5042,-1.5062,-1.5048,-1.5132,-1.5105,-1.511,-1.5112,-1.5136,-1.5145,-1.5153,-1.5048,-1.5048,-1.5047,0,0,-1.4917,-1.4925,-1.496,-1.497,-1.4984,-1.4984,-1.4992,-1.5004,-1.5007,-1.5044,-1.5028,-1.5051,-1.5091,-1.5102,-1.5113,-1.5176,-1.5164,-1.5183,-1.5218,-1.5244,-1.5251,-1.5258,-1.5281,-1.5289,-1.5188,-1.5188,-1.5189,0,-1.4947,-1.4986,-1.4979,-1.5008,-1.5021,-1.5002,-1.5037,-1.5047,-1.5068,-1.5077,-1.5062,-1.5111,-1.512,-1.5166,-1.5181,-1.519,-1.5199,-1.5182,-1.5251,-1.5257,-1.5263,-1.5285,-1.5293,-1.5191,-1.519,-1.519,-1.519,0,-1.5023,-1.505,-1.5075,-1.5096,-1.5111,-1.5143,-1.5141,-1.5157,-1.515,-1.5151,-1.5189,-1.5198,-1.5221,-1.5231,-1.5225,-1.5276,-1.5268,-1.5251,-1.5224,-1.5275,-1.5295,-1.5303,-1.5194,-1.5193,-1.5193,-1.5192,0,0,-1.5107,-1.5122,-1.5132,-1.5141,-1.5155,-1.5175,-1.5206,-1.5228,-1.5242,-1.5257,-1.5283,-1.5316,-1.5301,-1.5313,-1.5308,-1.533,-1.5379,-1.5311,-1.5311,-1.5323,-1.5436,-1.5449,-1.5459,-1.5371,-1.5372,-1.5373,-1.5435,0,-1.5169,-1.5222,-1.5216,-1.5267,-1.5292,-1.5274,-1.53,-1.5312,-1.5313,-1.5334,-1.5336,-1.536,-1.5338,-1.5345,-1.5366,-1.5369,-1.5402,-1.5364,-1.5395,-1.5396,-1.5393,-1.5469,-1.5483,-1.5541,-1.5443,-1.5444,-1.5445,0,-1.5249,-1.5266,-1.5319,-1.5329,-1.5339,-1.5363,-1.5383,-1.5403,-1.5415,-1.5415,-1.5428,-1.5418,-1.5448,-1.542,-1.5461,-1.5436,-1.5447,-1.5451,-1.5453,-1.5456,-1.5424,-1.5476,-1.5559,-1.5568,-1.5458,-1.5457,-1.5456,0,-1.5305,-1.5342,-1.5378,-1.5386,-1.5399,-1.5416,-1.5422,-1.5432,-1.5446,-1.5462,-1.5471,-1.5491,-1.5502,-1.5518,-1.5513,-1.5493,-1.5556,-1.5527,-1.5557,-1.5557,-1.5572,-1.5571,-1.566,-1.5578,-1.5578,-1.5578,-1.5578,0,-1.5376,-1.5409,-1.5404,-1.5426,-1.5463,-1.5455,-1.5492,-1.5495,-1.5505,-1.5527,-1.5513,-1.5534,-1.5527,-1.5548,-1.5545,-1.558,-1.5585,-1.5585,-1.5584,-1.5587,-1.5587,-1.5596,-1.5592,-1.558,-1.558,-1.5579,-1.5579,0,-1.5445,-1.5443,-1.5482,-1.549,-1.5493,-1.5519,-1.5526,-1.5547,-1.5547,-1.5576,-1.5582,-1.5582,-1.5606,-1.5603,-1.563,-1.5628,-1.5671,-1.5665,-1.5667,-1.5666,-1.5696,-1.5694,-1.5794,-1.5806,-1.5716,-1.5717,-1.5718,0,-1.5491,-1.5516,-1.5527,-1.5541,-1.5548,-1.5571,-1.5584,-1.5577,-1.5591,-1.5607,-1.5626,-1.5648,-1.5666,-1.5705,-1.5707,-1.5728,-1.5722,-1.5756,-1.5725,-1.5727,-1.5723,-1.5722,-1.5724,-1.5762,-1.5763,-1.5764,-1.5765,0,-1.5573,-1.557,-1.559,-1.5609,-1.5625,-1.564,-1.5653,-1.5666,-1.5659,-1.5676,-1.57,-1.5714,-1.5741,-1.5763,-1.5782,-1.5788,-1.5776,-1.5774,-1.5782,-1.5786,-1.5786,-1.5787,-1.5685,-1.5772,-1.5771,-1.5771,-1.577,-1.577,-1.5632,-1.5654,-1.5664,-1.5687,-1.5695,-1.5708,-1.5728,-1.573,-1.575,-1.5771,-1.5765,-1.5793,-1.5803,-1.5827,-1.5835,-1.5856,-1.5843,-1.5855,-1.5858,-1.5861,-1.5865,-1.5782,-1.5859,-1.5859,-1.5859,-1.5858,-1.5858,0,-1.5713,-1.5719,-1.5739,-1.5758,-1.5776,-1.5761,-1.5775,-1.5791,-1.5815,-1.5826,-1.5843,-1.587,-1.5892,-1.5895,-1.5915,-1.5931,-1.5926,-1.5937,-1.5936,-1.5938,-1.5875,-1.5866,-1.5941,-1.5941,-1.5941,-1.5941,-1.5941,-1.5941,-1.5757,-1.5793,-1.5791,-1.5831,-1.5836,-1.5863,-1.5872,-1.5883,-1.5891,-1.5923,-1.594,-1.5942,-1.595,-1.597,-1.5989,-1.5989,-1.5998,-1.6011,-1.6009,-1.595,-1.5942,-1.5934,-1.5926,-1.6013,-1.6013,-1.607,-1.6071,-1.6071]},{"header":{"parameterUnit":"m.s-1","parameterCategory":1,"la1":30.2991,"la2":30.254,"lo1":-89.0895,"lo2":-89.0444,"dy":0.0017,"dx":0.0017,"nx":28,"ny":28,"refTime":"2025-12-13T03:00:00:Z","depth":0,"parameterNumber":3,"parameterNumberName":"V-component_of_WINDS"},"data":[0,0,0,0,0,0,0,0,0,0,0,0,0,0,0,0,0,0,0,0,0,0,0,0,0,0,0,0,0,0,0,0,0,0,0,0,0,0,0,0,0,0,0,0,0,0,0,0,0,0,0,0,0,0,0,0,0,0,-9.09,-9.0901,0,-9.0996,-9.0997,-9.0998,-9.0919,-9.0915,-9.0912,-9.0909,-9.1,-9.1006,-9.1011,0,0,0,0,0,0,0,0,0,0,0,0,0,-9.064,-9.0645,-9.0899,-9.0901,-9.0902,-9.0996,-9.0997,-9.0999,-9.0919,-9.0915,-9.0911,-9.0907,-9.0999,-9.1005,-9.1012,0,0,0,0,0,0,0,0,0,0,0,0,0,-9.0746,-9.0647,-9.0899,-9.0874,-9.0872,-9.0996,-9.0997,-9.0999,-9.092,-9.0915,-9.091,-9.0905,-9.0996,-9.1005,-9.1013,-9.1164,0,0,-9.1038,-9.1042,0,0,0,0,0,0,0,0,-9.074,-9.0756,-9.0876,-9.0876,-9.0875,-9.094,-9.0939,-9.1054,-9.0921,-9.0902,-9.0909,-9.0903,-9.0984,-9.0993,-9.1022,-9.1168,-9.1172,-9.1039,-9.1044,-9.1047,-9.105,0,0,0,0,0,0,0,-9.0733,-9.0751,-9.0937,-9.0878,-9.0877,-9.0855,-9.0865,-9.0961,-9.0969,-9.0903,-9.0898,-9.091,-9.0982,-9.1014,-9.1023,-9.1173,-9.1039,-9.1046,-9.1051,-9.1054,-9.1449,-9.1455,0,0,0,0,0,0,-9.0729,-9.0745,-9.0934,-9.094,-9.0794,-9.0864,-9.0875,-9.0924,-9.0968,-9.097,-9.0915,-9.0906,-9.1002,-9.1014,-9.1026,-9.1207,-9.1047,-9.1055,-9.106,-9.1444,-9.1451,-9.1457,0,0,0,0,0,0,-9.0724,-9.0747,-9.093,-9.0842,-9.0863,-9.0874,-9.093,-9.0929,-9.096,-9.0977,-9.0977,-9.0946,-9.0999,-9.1015,-9.1131,-9.1209,-9.1059,-9.1067,-9.1438,-9.1446,-9.1454,-9.157,0,0,0,0,0,0,-9.0717,-9.0745,-9.0804,-9.0844,-9.0868,-9.1036,-9.0935,-9.0934,-9.0976,-9.0966,-9.1006,-9.1008,-9.0996,-9.1119,-9.1139,-9.1218,-9.1073,-9.1431,-9.1441,-9.1451,-9.1559,-9.1581,-9.16,0,0,0,0,0,-9.0708,-9.0831,-9.0808,-9.0831,-9.0943,-9.104,-9.1054,-9.104,-9.0982,-9.1041,-9.1052,-9.1007,-9.1198,-9.1132,-9.1154,-9.1236,-9.1426,-9.1438,-9.145,-9.155,-9.1576,-9.1599,0,0,0,0,0,0,-9.0797,-9.0836,-9.081,-9.095,-9.0993,-9.1027,-9.11,-9.1069,-9.1127,-9.1115,-9.1092,-9.1102,-9.1225,-9.1242,-9.1168,-9.1385,-9.1302,-9.1319,-9.137,-9.1396,-9.1416,-9.1409,-9.108,0,0,0,0,0,-9.0834,-9.0913,-9.0941,-9.1061,-9.1085,-9.1089,-9.1131,-9.1117,-9.1159,-9.1176,-9.1195,-9.1236,-9.1305,-9.1351,-9.1415,-9.1561,-9.1568,-9.1628,-9.1649,-9.1665,-9.1681,-9.1759,-9.1787,-9.1497,-9.1497,-9.1497,0,0,-9.0909,-9.094,-9.099,-9.108,-9.1112,-9.1192,-9.1105,-9.1192,-9.1251,-9.1188,-9.1301,-9.1317,-9.136,-9.1493,-9.1552,-9.151,-9.1762,-9.1681,-9.1694,-9.1701,-9.1775,-9.1802,-9.1827,-9.1506,-9.1504,-9.1503,0,0,-9.1087,-9.1119,-9.1224,-9.1258,-9.1308,-9.1311,-9.1336,-9.1376,-9.1385,-9.1498,-9.1453,-9.1521,-9.164,-9.1674,-9.1707,-9.1901,-9.1862,-9.1922,-9.2028,-9.2106,-9.2128,-9.2149,-9.2218,-9.2243,-9.1937,-9.1938,-9.1938,0,-9.1174,-9.1296,-9.1281,-9.1374,-9.1415,-9.1365,-9.147,-9.1503,-9.157,-9.1599,-9.1552,-9.1703,-9.1729,-9.1868,-9.1916,-9.1944,-9.1972,-9.1917,-9.2127,-9.2147,-9.2165,-9.2231,-9.2258,-9.1945,-9.1944,-9.1943,-9.1942,0,-9.14,-9.1485,-9.1563,-9.1634,-9.1683,-9.1781,-9.178,-9.1832,-9.1814,-9.1821,-9.1936,-9.1966,-9.2036,-9.2068,-9.205,-9.2206,-9.2179,-9.213,-9.2046,-9.22,-9.2262,-9.2287,-9.1955,-9.1952,-9.195,-9.1948,0,0,-9.1636,-9.1699,-9.1728,-9.176,-9.1813,-9.1877,-9.1973,-9.2045,-9.209,-9.2138,-9.2217,-9.2321,-9.2277,-9.2314,-9.2299,-9.2367,-9.252,-9.231,-9.231,-9.2348,-9.2694,-9.2731,-9.2761,-9.2494,-9.2499,-9.2503,-9.2691,0,-9.1817,-9.1988,-9.1978,-9.2137,-9.2216,-9.217,-9.2253,-9.2294,-9.2303,-9.2369,-9.2378,-9.2453,-9.2388,-9.2411,-9.2476,-9.2487,-9.2589,-9.2474,-9.2567,-9.257,-9.2558,-9.2793,-9.2832,-9.3007,-9.2714,-9.2719,-9.2721,0,-9.2052,-9.2112,-9.228,-9.2323,-9.2355,-9.2431,-9.2497,-9.2561,-9.2606,-9.2608,-9.2651,-9.2626,-9.2721,-9.2635,-9.2766,-9.2688,-9.2725,-9.2737,-9.2743,-9.2751,-9.2655,-9.2807,-9.3063,-9.309,-9.2759,-9.2756,-9.2754,0,-9.2208,-9.2331,-9.2448,-9.2477,-9.2529,-9.2584,-9.2608,-9.2648,-9.2692,-9.2748,-9.2777,-9.2843,-9.2879,-9.293,-9.2922,-9.286,-9.3056,-9.2969,-9.3059,-9.3059,-9.3102,-9.3099,-9.3367,-9.3126,-9.3125,-9.3125,-9.3124,0,-9.2412,-9.2517,-9.252,-9.2592,-9.2707,-9.2695,-9.2809,-9.2826,-9.2863,-9.2936,-9.2899,-9.2968,-9.2954,-9.3022,-9.3016,-9.3126,-9.3142,-9.3145,-9.3142,-9.3149,-9.3149,-9.3173,-9.316,-9.3132,-9.313,-9.3129,-9.3128,0,-9.2606,-9.2613,-9.2737,-9.2778,-9.2791,-9.2874,-9.2908,-9.2975,-9.2983,-9.3076,-9.3097,-9.3107,-9.3186,-9.3184,-9.3272,-9.3268,-9.3403,-9.3385,-9.3389,-9.3385,-9.3476,-9.3468,-9.3769,-9.3808,-9.3541,-9.3544,-9.3546,0,-9.2736,-9.2816,-9.2867,-9.2915,-9.2944,-9.3021,-9.3067,-9.3058,-9.3107,-9.3165,-9.3225,-9.3301,-9.3361,-9.3489,-9.3503,-9.357,-9.3554,-9.3655,-9.3564,-9.3568,-9.3556,-9.3552,-9.356,-9.3673,-9.3676,-9.3679,-9.3681,0,-9.2966,-9.2966,-9.3036,-9.3107,-9.3164,-9.3219,-9.3269,-9.331,-9.3306,-9.3363,-9.3445,-9.3492,-9.3584,-9.3659,-9.3725,-9.3746,-9.3713,-9.371,-9.3734,-9.3741,-9.3741,-9.3743,-9.3438,-9.3702,-9.37,-9.3699,-9.3697,-9.3697,-9.3132,-9.3202,-9.325,-9.3329,-9.3367,-9.3415,-9.3481,-9.3498,-9.3567,-9.3644,-9.3633,-9.3724,-9.3767,-9.3852,-9.388,-9.395,-9.3914,-9.3949,-9.3958,-9.3967,-9.3978,-9.373,-9.3962,-9.3961,-9.396,-9.396,-9.3959,0,-9.3361,-9.339,-9.3463,-9.3537,-9.3599,-9.3566,-9.362,-9.3673,-9.3755,-9.38,-9.3861,-9.3955,-9.4029,-9.405,-9.412,-9.4172,-9.4159,-9.4191,-9.4187,-9.4193,-9.4006,-9.3978,-9.4201,-9.4201,-9.4201,-9.4201,-9.4201,-9.4201,-9.3488,-9.3604,-9.361,-9.3745,-9.3772,-9.3865,-9.3899,-9.3943,-9.3979,-9.4087,-9.4149,-9.4163,-9.4198,-9.4271,-9.4337,-9.4341,-9.4368,-9.4408,-9.4405,-9.423,-9.4206,-9.4183,-9.4157,-9.4414,-9.4414,-9.4587,-9.4588,-9.4589]}]]